Location: Hungerford
(51.4167°N, 1.5167°W)
Time: 05:36:09
(UTC+00:00)

Envisat - Visible Passes

Search period start: 25 November 2020 00:00
Search period end: 05 December 2020 00:00
Orbit: 764 x 766 km, 98.1° (Epoch: 24 November)

Date Brightness Start Highest point End Pass type
(mag) Time Alt. Az. Time Alt. Az. Time Alt. Az.
25 Nov 4.1 05:41:52 10° NNE 05:46:47 46° E 05:51:39 10° S visible
25 Nov 3.1 17:01:34 10° SSE 17:06:39 83° WSW 17:11:47 10° NNW visible
25 Nov 6.1 18:43:58 10° WSW 18:46:29 14° W 18:49:02 10° NW visible
26 Nov 5.4 05:05:35 10° NE 05:09:40 24° E 05:13:44 10° SE visible
26 Nov 3.1 06:44:04 10° N 06:49:04 58° WNW 06:54:02 10° SSW visible
26 Nov 5.2 18:04:56 10° SSW 18:09:12 27° W 18:13:30 10° NW visible
27 Nov 6.2 04:30:26 10° ENE 04:32:21 12° E 04:34:16 10° ESE visible
27 Nov 3.2 06:07:10 10° NNE 06:12:17 74° ESE 06:17:22 10° S visible
27 Nov 3.9 17:27:12 10° S 17:32:09 52° W 17:37:07 10° NNW visible
28 Nov 4.5 05:30:35 10° NNE 05:35:19 38° E 05:40:02 10° SSE visible
28 Nov 3.0 16:50:11 10° SSE 16:55:16 82° ENE 17:00:23 10° NNW visible
28 Nov 5.9 18:31:42 10° SW 18:34:57 17° W 18:38:12 10° NW visible
29 Nov 5.6 04:54:29 10° NE 04:58:09 20° E 05:01:48 10° SE visible
29 Nov 2.9 06:32:37 10° N 06:37:43 71° WNW 06:42:45 10° SSW visible
29 Nov 4.9 17:53:11 10° SSW 17:57:43 32° W 18:02:18 10° NNW visible
30 Nov 3.6 05:55:49 10° NNE 06:00:52 61° E 06:05:54 10° S visible
30 Nov 3.5 17:15:41 10° S 17:20:43 64° WSW 17:25:47 10° NNW visible
01 Dec 4.9 05:19:20 10° NNE 05:23:51 31° E 05:28:20 10° SSE visible
01 Dec 3.3 06:58:11 10° N 07:03:02 45° WNW 07:07:51 10° SW visible
01 Dec 3.0 16:38:52 10° SSE 16:43:53 67° ENE 16:48:57 10° N visible
01 Dec 5.6 18:19:39 10° SW 18:23:24 21° W 18:27:11 10° NW visible
02 Dec 5.9 04:43:31 10° NE 04:46:37 16° E 04:49:42 10° SE visible
02 Dec 3.0 06:21:13 10° NNE 06:26:20 85° WNW 06:31:25 10° SSW visible
02 Dec 4.5 17:41:30 10° SSW 17:46:15 39° W 17:51:02 10° NNW visible
03 Dec 4.0 05:44:29 10° NNE 05:49:26 49° E 05:54:22 10° S visible
03 Dec 3.2 17:04:13 10° S 17:09:18 78° WSW 17:14:25 10° NNW visible
03 Dec 6.2 18:47:01 10° WSW 18:49:12 13° W 18:51:24 10° WNW visible
04 Dec 5.2 05:08:09 10° NE 05:12:21 25° E 05:16:33 10° SSE visible
04 Dec 3.1 06:46:44 10° N 06:51:42 54° WNW 06:56:38 10° SW visible
04 Dec 5.3 18:07:44 10° SSW 18:11:54 25° W 18:16:04 10° NW visible
